Flag for China Weather past 2 weeks in Chengdu, Sichuan, China

Now
82 °F

Passing clouds.


Feels Like: 81 °F
Forecast: 66 / 85 °F
Wind: 3 mph from North

Location: Chengdu Airport

Current Time: May 23, 2015 at 1:22:36 PM

Latest Report: May 23, 2015 at 1:00 PM


Visibility: N/A

Pressure: 29.83 "Hg

Humidity: 37%

Dew point: 54 °F

Location of ChengduLocation

Historic Weather in Chengdu — Graph

°F

Chengdu temperature yesterday

Maximum temperature yesterday: 79 °F (at 3:00 PM)
Minimum temperature yesterday: 64 °F (at 12:00 AM)
Average temperature yesterday: 70 °F

Past Weeks' High & Low Weather Summary

 TemperatureHumidityPressure
High93 °F (May 19, 3:00 PM)94% (May 15, 3:00 AM)30.18 "Hg (May 15, 3:00 AM)
Low63 °F (May 9, 2:00 AM)12% (May 11, 1:00 PM)29.56 "Hg (May 13, 4:00 PM)
Average76 °F54%29.80 "Hg
* Reported May 8 12:00 Noon — May 23 12:00 Noon, Chengdu, Weather by CustomWeather, © 2015

Note: Actual official high and low records may vary slightly from our data, if they occured in-between our weather recording intervals... More about our weather records

Advertising

Chengdu weather history for previous 24 hours

 ConditionsComfort  
Time TempWeatherWind HumidityBarometerVisibility
12:00 PM
Sat, May 23
81 °FPassing clouds.3 mph42%29.86 "HgN/A
11:00 AM79 °FPassing clouds.3 mph42%29.86 "HgN/A
10:00 AM79 °FSunny.1 mph48%29.89 "Hg10 mi
9:00 AM77 °FSunny.1 mph51%29.89 "Hg10 mi
8:00 AM73 °FClear.No wind61%29.86 "Hg5 mi
7:00 AM66 °FClear.No wind83%29.86 "Hg4 mi
6:00 AM66 °FClear.1 mph83%29.83 "Hg5 mi
5:00 AM66 °FClear.No wind83%29.83 "Hg10 mi
4:00 AM68 °FClear.1 mph78%29.83 "Hg10 mi
3:00 AM70 °FPassing clouds.3 mph69%29.83 "HgN/A
2:00 AM68 °FPassing clouds.No wind73%29.86 "HgN/A
1:00 AM68 °FPassing clouds.1 mph73%29.89 "HgN/A
12:00 AM70 °FClear.3 mph69%29.92 "Hg10 mi
11:00 PM
Fri, May 22
68 °FClear.No wind73%29.92 "Hg10 mi
10:00 PM70 °FClear.1 mph69%29.89 "Hg10 mi
9:00 PM72 °FClear.1 mph57%29.86 "Hg10 mi
8:00 PM73 °FClear.3 mph50%29.83 "Hg10 mi
7:00 PM75 °FSunny.6 mph47%29.83 "Hg10 mi
6:00 PM75 °FPassing clouds.6 mph44%29.83 "HgN/A
5:00 PM77 °FPassing clouds.6 mph42%29.83 "HgN/A
4:00 PM77 °FPassing clouds.8 mph44%29.86 "HgN/A
3:00 PM79 °FScattered clouds.6 mph42%29.89 "HgN/A
2:00 PM77 °FScattered clouds.8 mph51%29.92 "HgN/A
1:00 PM75 °FPassing clouds.8 mph54%29.95 "HgN/A
Weather by CustomWeather, © 2015

See weather overviewHow to use our weather pages